Vertical_Velocity
-12 -18 -2 3 -3 -1 7 0 -12 1 4 21 15 10 41 -6 5 -4 4 0 0 -1
6 -8 -20 -8 2 9 8 -3 -3 -13 -13 0 6 10 -9 -28 0 -6 -3 5 8 13
-11 1 12 -3 -2 5 -2 4 0 -4 -4 3 5 -2 43 -37 -10 98 -15 -5 10 5
-3 2 7 3 4 3 4 2 6 -2 2 -1 8 1 -26 24 76 66 -6 -8 8 11
-4 -5 1 -2 -3 -8 -1 2 1 7 3 4 2 -9 -3 31 80 3 4 0 0 2
9 -2 -1 -6 -0 -4 -2 8 1 3 -0 -3 -0 -8 -1 24 -0 5 5 4 3 4
-5 -3 -5 2 2 0 1 1 -8 -2 -0 -2 -21 -6 48 -17 -0 72 -2 23 -1 1
1 -4 2 2 3 -1 6 -2 -6 -0 1 -0 6 1 -17 22 18 -22 -4 47 0 1
-6 -4 3 -1 -1 10 3 5 -0 -0 2 16 -5 -0 -2 4 -12 40 0 -2 58 69
-7 2 1 -1 5 1 2 3 -1 5 1 -0 -1 12 9 9 1 -2 2 0 -3 -3
1 -1 -1 1 6 -1 2 2 -2 2 4 -4 -1 -7 8 18 11 -4 -1 2 -0 11
-1 3 2 10 7 -3 5 1 2 -1 1 -4 0 4 1 4 3 3 -6 4 -2 -4
4 -2 0 -0 -1 6 -2 4 2 2 -3 2 2 0 -2 2 -2 9 9 3 3 0
1 -1 -2 3 15 4 -1 1 2 2 3 6 2 3 8 2 -0 -1 3 2 4 0
Height
5659 5654 5648 5638 5625 5617 5605 5596 5598 5597 5594 5592 5597 5606 5617 5623 5633 5640 5647 5656 5661 5665
5635 5620 5612 5606 5594 5577 5572 5567 5563 5559 5562 5563 5567 5574 5584 5598 5609 5618 5626 5635 5644 5648
5606 5592 5575 5567 5562 5554 5550 5545 5540 5537 5534 5535 5538 5544 5554 5568 5585 5578 5603 5616 5625 5632
5574 5562 5548 5535 5530 5528 5526 5524 5520 5517 5514 5513 5516 5520 5528 5535 5545 5570 5587 5598 5607 5615
5544 5531 5517 5508 5504 5505 5504 5503 5500 5497 5494 5489 5488 5494 5506 5517 5524 5551 5568 5582 5589 5597
5521 5506 5494 5486 5483 5483 5484 5486 5484 5480 5473 5469 5472 5479 5497 5506 5515 5533 5550 5562 5571 5579
5501 5490 5477 5470 5466 5467 5472 5473 5468 5460 5459 5460 5465 5472 5480 5495 5507 5517 5533 5543 5554 5564
5487 5473 5464 5459 5458 5461 5462 5459 5452 5447 5452 5455 5459 5466 5475 5485 5495 5506 5518 5530 5541 5548
5472 5462 5457 5453 5453 5453 5447 5441 5436 5437 5445 5451 5456 5460 5469 5476 5487 5491 5507 5518 5520 5529
5459 5454 5451 5449 5448 5444 5439 5431 5430 5433 5440 5446 5451 5457 5464 5471 5479 5491 5497 5505 5509 5519
5452 5449 5448 5445 5444 5441 5433 5426 5427 5431 5436 5441 5447 5454 5458 5465 5472 5481 5487 5496 5504 5510
5447 5445 5444 5441 5441 5437 5429 5422 5423 5427 5431 5437 5443 5448 5452 5458 5466 5473 5481 5489 5495 5501
5443 5442 5440 5438 5437 5436 5428 5421 5419 5422 5427 5431 5436 5441 5447 5452 5460 5466 5474 5480 5486 5492
5438 5438 5438 5435 5435 5435 5430 5424 5418 5417 5420 5425 5431 5435 5440 5447 5455 5462 5467 5473 5479 5484